When you browse on this site, cookies collect data to enhance your experience and personalize the content and advertising you see.
Visit our Privacy Policy to learn more. By continuing to use the site, you agree to this use of cookies and data.
  • In Latvia
  • List of Countries
  • For 7 days
  • Water Temperature
  • Satellite Maps
  • Weather Map
  • Weather Widgets
  • user-avatar
    Login

    Hourly Weather Albany

    Today, 19 January, Saturday

    Time Temperature Precipitation Wind Pressure Humidity
    00:00 +15°C° 0 mm 4 mps 761 mmHg 81%
    01:00 +14°C° 0 mm 4 mps 761 mmHg 82%
    02:00 +14°C° 0 mm 3 mps 761 mmHg 84%
    03:00 +14°C° 0 mm 3 mps 761 mmHg 85%
    04:00 +13°C° 0 mm 3 mps 761 mmHg 86%
    05:00 +13°C° 0 mm 3 mps 761 mmHg 87%
    06:00 +16°C° 0 mm 3 mps 761 mmHg 76%
    07:00 +18°C° 0 mm 3 mps 761 mmHg 66%
    08:00 +21°C° 0 mm 4 mps 761 mmHg 57%
    09:00 +25°C° 0 mm 4 mps 761 mmHg 49%
    10:00 +27°C° 0 mm 3 mps 761 mmHg 42%
    11:00 +30°C° 0 mm 3 mps 760 mmHg 34%
    12:00 +32°C° 0 mm 4 mps 760 mmHg 36%
    13:00 +32°C° 0 mm 5 mps 759 mmHg 37%
    14:00 +33°C° 0 mm 5 mps 759 mmHg 38%
    15:00 +30°C° 0 mm 6 mps 759 mmHg 44%
    16:00 +29°C° 0 mm 6 mps 758 mmHg 50%
    17:00 +27°C° 0 mm 6 mps 758 mmHg 56%
    18:00 +25°C° 0 mm 5 mps 758 mmHg 63%
    19:00 +23°C° 0 mm 5 mps 759 mmHg 69%
    20:00 +21°C° 0 mm 4 mps 759 mmHg 76%
    21:00 +20°C° 0 mm 4 mps 759 mmHg 78%
    22:00 +20°C° 0 mm 3 mps 759 mmHg 80%
    23:00 +19°C° 0 mm 3 mps 759 mmHg 82%

    Tomorrow, 20 January, Sunday

    Time Temperature Precipitation Wind Pressure Humidity
    00:00 +19°C° 0 mm 3 mps 759 mmHg 83%
    01:00 +19°C° 0 mm 3 mps 758 mmHg 84%
    02:00 +19°C° 0 mm 2 mps 758 mmHg 84%
    03:00 +19°C° 0 mm 2 mps 758 mmHg 84%
    04:00 +19°C° 0 mm 2 mps 757 mmHg 83%
    05:00 +19°C° 0 mm 2 mps 757 mmHg 82%
    06:00 +21°C° 0 mm 2 mps 757 mmHg 74%
    07:00 +24°C° 0 mm 2 mps 757 mmHg 65%
    08:00 +26°C° 0 mm 3 mps 757 mmHg 57%
    09:00 +30°C° 0 mm 3 mps 757 mmHg 48%
    10:00 +34°C° 0 mm 3 mps 756 mmHg 40%
    11:00 +37°C° 0 mm 3 mps 756 mmHg 31%
    12:00 +36°C° 0 mm 4 mps 755 mmHg 36%
    13:00 +35°C° 0 mm 5 mps 755 mmHg 40%
    14:00 +34°C° 0 mm 5 mps 754 mmHg 45%
    15:00 +32°C° 0 mm 5 mps 754 mmHg 49%
    16:00 +30°C° 0 mm 4 mps 754 mmHg 53%
    17:00 +29°C° 0 mm 3 mps 754 mmHg 56%
    18:00 +27°C° 0 mm 3 mps 754 mmHg 63%
    19:00 +25°C° 0 mm 3 mps 754 mmHg 70%
    20:00 +23°C° 0 mm 2 mps 755 mmHg 78%
    21:00 +21°C° 0 mm 2 mps 755 mmHg 81%
    22:00 +21°C° 0 mm 2 mps 755 mmHg 84%
    23:00 +20°C° 0 mm 2 mps 754 mmHg 87%

    Day after tomorrow, 21 January, Monday

    Time Temperature Precipitation Wind Pressure Humidity
    00:00 +20°C° 0 mm 2 mps 754 mmHg 88%
    01:00 +20°C° 0 mm 2 mps 753 mmHg 89%
    02:00 +19°C° 0 mm 2 mps 753 mmHg 90%
    03:00 +19°C° 0 mm 2 mps 753 mmHg 91%
    04:00 +19°C° 0 mm 2 mps 753 mmHg 93%
    05:00 +19°C° 0 mm 2 mps 753 mmHg 94%
    06:00 +20°C° 0 mm 3 mps 753 mmHg 87%
    07:00 +22°C° 0 mm 3 mps 753 mmHg 79%
    08:00 +24°C° 0 mm 3 mps 754 mmHg 72%
    09:00 +26°C° 0 mm 4 mps 754 mmHg 64%
    10:00 +27°C° 0 mm 4 mps 754 mmHg 56%
    11:00 +29°C° 0 mm 4 mps 754 mmHg 47%
    12:00 +28°C° 0 mm 5 mps 754 mmHg 47%
    13:00 +28°C° 0 mm 5 mps 754 mmHg 47%
    14:00 +27°C° 0 mm 6 mps 753 mmHg 46%
    15:00 +26°C° 0 mm 6 mps 754 mmHg 51%
    16:00 +24°C° 0 mm 6 mps 754 mmHg 55%
    17:00 +23°C° 0 mm 6 mps 754 mmHg 60%
    18:00 +22°C° 0 mm 6 mps 754 mmHg 67%
    19:00 +21°C° 0 mm 5 mps 755 mmHg 75%
    20:00 +20°C° 0 mm 4 mps 755 mmHg 82%
    21:00 +20°C° 0.1 mm 4 mps 756 mmHg 82%
    22:00 +20°C° 0.1 mm 4 mps 756 mmHg 83%
    23:00 +20°C° 0.1 mm 4 mps 756 mmHg 83%

    22 January, Tuesday

    Time Temperature Precipitation Wind Pressure Humidity
    00:00 +19°C° 0.1 mm 4 mps 756 mmHg 85%
    01:00 +19°C° 0.1 mm 5 mps 755 mmHg 86%
    02:00 +19°C° 0.1 mm 5 mps 755 mmHg 88%
    03:00 +17°C° 0.1 mm 5 mps 755 mmHg 88%
    04:00 +17°C° 0.1 mm 6 mps 755 mmHg 88%
    05:00 +17°C° 0.1 mm 6 mps 755 mmHg 88%
    06:00 +17°C° 0.1 mm 6 mps 755 mmHg 86%
    07:00 +17°C° 0.1 mm 6 mps 755 mmHg 85%
    08:00 +17°C° 0.1 mm 6 mps 756 mmHg 84%
    09:00 +17°C° 0.1 mm 6 mps 756 mmHg 83%
    10:00 +17°C° 0.1 mm 5 mps 756 mmHg 82%
    11:00 +17°C° 0.1 mm 5 mps 756 mmHg 80%
    12:00 +19°C° 0.2 mm 5 mps 755 mmHg 80%
    13:00 +19°C° 0.2 mm 5 mps 755 mmHg 79%
    14:00 +20°C° 0.2 mm 5 mps 754 mmHg 79%
    15:00 +20°C° 0.2 mm 5 mps 754 mmHg 77%
    16:00 +21°C° 0.2 mm 5 mps 753 mmHg 75%
    17:00 +21°C° 0.2 mm 6 mps 753 mmHg 73%
    18:00 +20°C° 0.1 mm 6 mps 753 mmHg 76%
    19:00 +20°C° 0.1 mm 6 mps 753 mmHg 79%
    20:00 +19°C° 0.1 mm 6 mps 753 mmHg 82%
    21:00 +19°C° 0.1 mm 6 mps 752 mmHg 83%
    22:00 +18°C° 0.1 mm 7 mps 751 mmHg 84%
    23:00 +18°C° 0.1 mm 8 mps 751 mmHg 86%

    23 January, Wednesday

    Time Temperature Precipitation Wind Pressure Humidity
    00:00 +18°C° 0.2 mm 7 mps 750 mmHg 87%
    01:00 +20°C° 0.2 mm 6 mps 749 mmHg 88%
    02:00 +20°C° 0.2 mm 5 mps 748 mmHg 89%
    03:00 +19°C° 0.7 mm 6 mps 748 mmHg 87%
    04:00 +19°C° 0.7 mm 6 mps 748 mmHg 85%
    05:00 +17°C° 0.7 mm 6 mps 747 mmHg 83%
    06:00 +17°C° 0 mm 7 mps 747 mmHg 78%
    07:00 +17°C° 0 mm 8 mps 747 mmHg 73%
    08:00 +17°C° 0 mm 8 mps 747 mmHg 68%
    09:00 +18°C° 0 mm 10 mps 747 mmHg 61%
    10:00 +19°C° 0 mm 11 mps 746 mmHg 54%
    11:00 +21°C° 0 mm 12 mps 746 mmHg 46%
    12:00 +19°C° 0 mm 13 mps 745 mmHg 53%
    13:00 +18°C° 0 mm 14 mps 745 mmHg 60%
    14:00 +17°C° 0 mm 15 mps 745 mmHg 66%
    15:00 +15°C° 0.8 mm 15 mps 745 mmHg 71%
    16:00 +15°C° 0.8 mm 15 mps 746 mmHg 75%
    17:00 +15°C° 0.8 mm 15 mps 746 mmHg 79%
    18:00 +15°C° 0.5 mm 15 mps 747 mmHg 79%
    19:00 +15°C° 0.5 mm 14 mps 748 mmHg 79%
    20:00 +15°C° 0.5 mm 13 mps 749 mmHg 78%
    21:00 +15°C° 0.1 mm 12 mps 750 mmHg 77%
    22:00 +14°C° 0.1 mm 12 mps 751 mmHg 76%
    23:00 +14°C° 0.1 mm 11 mps 752 mmHg 75%

    24 January, Thursday

    Time Temperature Precipitation Wind Pressure Humidity
    00:00 +14°C° 0.1 mm 11 mps 752 mmHg 76%
    01:00 +14°C° 0.1 mm 11 mps 752 mmHg 76%
    02:00 +13°C° 0.1 mm 10 mps 753 mmHg 76%
    03:00 +13°C° 0.1 mm 10 mps 753 mmHg 76%
    04:00 +13°C° 0.1 mm 9 mps 754 mmHg 76%
    05:00 +13°C° 0.1 mm 9 mps 754 mmHg 76%
    06:00 +13°C° 0.1 mm 8 mps 755 mmHg 74%
    07:00 +15°C° 0.1 mm 8 mps 756 mmHg 72%
    08:00 +15°C° 0.1 mm 8 mps 756 mmHg 70%
    09:00 +15°C° 0.1 mm 8 mps 757 mmHg 68%
    10:00 +15°C° 0.1 mm 8 mps 757 mmHg 65%
    11:00 +16°C° 0.1 mm 8 mps 757 mmHg 63%
    12:00 +16°C° 0 mm 7 mps 757 mmHg 63%
    13:00 +16°C° 0 mm 6 mps 757 mmHg 62%
    14:00 +15°C° 0 mm 6 mps 758 mmHg 62%
    15:00 +15°C° 0 mm 6 mps 758 mmHg 63%
    16:00 +15°C° 0 mm 5 mps 758 mmHg 64%
    17:00 +15°C° 0 mm 5 mps 758 mmHg 65%
    18:00 +15°C° 0 mm 4 mps 758 mmHg 67%
    19:00 +15°C° 0 mm 4 mps 759 mmHg 68%
    20:00 +14°C° 0 mm 3 mps 759 mmHg 70%
    21:00 +14°C° 0 mm 3 mps 759 mmHg 71%
    22:00 +15°C° 0 mm 2 mps 759 mmHg 72%
    23:00 +15°C° 0 mm 2 mps 759 mmHg 74%
    Show more